AB4KN Weather Reports


Display with metric or nautical units.
time (UTC)temp
F
wind
direction
speed
MPH
gust
MPH
rain 1hr
in
rain 24hr
in
rain mn
in
humidity
%
barometer
mb
20260502200618 69 324 3.0 3.0 0.00 0.04 0.04 36 1017.3
20260502200116 69 291 0.0 0.0 0.00 0.04 0.04 40 1017.4
20260502195614 69 303 0.0 0.0 0.00 0.04 0.04 36 1017.3
20260502195109 70 318 0.0 0.0 0.00 0.04 0.04 37 1017.3
20260502194606 70 289 0.0 0.0 0.00 0.04 0.04 40 1017.3
20260502194103 69 300 0.0 0.0 0.00 0.04 0.04 40 1017.5
20260502193600 69 230 1.0 3.0 0.00 0.04 0.04 41 1017.4
20260502193056 69 192 4.0 9.0 0.00 0.04 0.04 37 1017.3
20260502192552 69 298 0.0 0.0 0.00 0.04 0.04 41 1017.4
20260502192050 69 285 0.0 0.0 0.00 0.04 0.04 40 1017.5
20260502191546 69 308 0.0 0.0 0.00 0.04 0.04 44 1017.6
20260502191044 69 323 0.0 0.0 0.00 0.04 0.04 45 1017.5
20260502190542 69 326 0.0 0.0 0.00 0.04 0.04 44 1017.5
20260502190038 69 341 0.0 0.0 0.00 0.04 0.04 43 1017.4
20260502185533 69 310 2.0 2.0 0.00 0.04 0.04 42 1017.4
20260502185031 69 240 0.0 0.0 0.00 0.04 0.04 43 1017.4
20260502184526 69 311 0.0 0.0 0.00 0.04 0.04 49 1017.4
20260502184022 68 309 0.0 0.0 0.00 0.04 0.04 49 1017.4
20260502183519 68 312 0.0 0.0 0.00 0.04 0.04 50 1017.3
20260502183015 67 331 0.0 0.0 0.00 0.04 0.04 53 1017.3
20260502182510 67 321 0.0 0.0 0.00 0.04 0.04 54 1017.2
20260502182006 68 310 0.0 0.0 0.00 0.04 0.04 53 1017.3
20260502181504 69 316 0.0 0.0 0.00 0.04 0.04 51 1017.4
20260502181003 69 307 0.0 0.0 0.00 0.04 0.04 51 1017.4
20260502180459 69 301 0.0 0.0 0.00 0.04 0.04 50 1017.6
20260502170418 67 306 0.0 0.0 0.00 0.04 0.04 56 1017.9
20260502163902 65 307 0.0 0.0 0.00 0.04 0.04 59 1018.2
20260502163358 64 335 0.0 0.0 0.00 0.04 0.04 61 1018.1
20260502162856 64 311 0.0 0.0 0.00 0.04 0.04 59 1018.2
20260502162352 63 310 0.0 0.0 0.00 0.04 0.04 60 1018.2
20260502161849 63 302 0.0 0.0 0.00 0.04 0.04 62 1018.0
20260502161345 62 319 0.0 0.0 0.00 0.04 0.04 65 1018.2
20260502160843 62 313 0.0 0.0 0.00 0.04 0.04 67 1018.2
20260502160342 62 311 0.0 0.0 0.00 0.04 0.04 70 1018.3
20260502152322 59 296 0.0 0.0 0.00 0.04 0.04 73 1018.5
20260502151820 59 296 0.0 0.0 0.00 0.04 0.04 75 1018.3
20260502151316 58 295 0.0 0.0 0.00 0.04 0.04 75 1018.1
20260502150814 58 296 0.0 0.0 0.00 0.04 0.04 73 1018.2
20260502150310 58 295 1.0 2.0 0.00 0.04 0.04 75 1018.2
20260502130659 52 280 0.0 0.0 0.00 0.04 0.04 89 1017.3
20260502130157 52 280 0.0 0.0 0.00 0.04 0.04 89 1017.1
20260502123642 52 279 0.0 0.0 0.07 0.04 0.04 89 1017.6
20260502123139 53 279 0.0 0.0 0.00 0.03 0.03 89 1018.2
20260502122635 53 279 0.0 0.0 0.00 0.03 0.03 89 1018.5
20260502122132 53 278 0.0 0.0 0.00 0.03 0.03 89 1018.6
20260502121630 52 279 0.0 0.0 0.00 0.03 0.03 89 1018.0
20260502121127 52 279 0.0 0.0 0.00 0.03 0.03 89 1017.4
20260502120624 52 278 0.0 0.0 0.00 0.03 0.03 89 1017.3
20260502120121 53 278 0.0 0.0 0.00 0.03 0.03 89 1016.9
20260502115619 53 278 0.0 0.0 0.00 0.03 0.03 89 1017.1
20260502115114 53 278 0.0 0.0 0.00 0.03 0.03 89 1017.3
20260502114610 53 278 0.0 0.0 0.00 0.03 0.03 89 1017.5
20260502114108 53 278 0.0 0.0 0.00 0.03 0.03 89 1018.1
20260502113605 53 278 0.0 0.0 0.00 0.03 0.03 89 1017.7
20260502113104 53 278 0.0 0.0 0.00 0.03 0.03 89 1017.4
20260502112601 53 278 0.0 0.0 0.00 0.03 0.03 89 1017.1
20260502112058 53 278 0.0 0.0 0.00 0.03 0.03 89 1016.7
20260502111556 53 278 0.0 0.0 0.00 0.03 0.03 89 1017.1
20260502111053 54 278 0.0 0.0 0.00 0.03 0.03 89 1017.2
20260502110550 54 278 0.0 0.0 0.05 0.03 0.03 89 1017.1
20260502110048 54 277 0.0 0.0 0.05 0.03 0.03 89 1017.4
20260502105545 54 277 0.0 0.0 0.05 0.03 0.03 89 1017.7
20260502105043 54 277 0.0 0.0 0.00 0.02 0.02 89 1017.7
20260502104539 54 277 0.0 0.0 0.00 0.02 0.02 89 1017.7
20260502104037 54 277 0.0 0.0 0.00 0.02 0.02 89 1017.8
20260502103535 54 276 0.0 0.0 0.00 0.02 0.02 89 1017.9
20260502103032 54 276 0.0 0.0 0.00 0.02 0.02 89 1018.4
20260502102528 55 278 0.0 0.0 0.00 0.02 0.02 89 1018.2
20260502102026 55 281 0.0 0.0 0.00 0.02 0.02 89 1017.7
20260502101523 55 281 0.0 0.0 0.00 0.02 0.02 89 1017.3
20260502101022 55 281 0.0 0.0 0.00 0.02 0.02 89 1016.9
20260502100520 55 281 0.0 0.0 0.00 0.02 0.02 89 1017.1
20260502091454 56 281 0.0 0.0 0.00 0.02 0.02 89 1016.5
20260502090952 56 281 0.0 0.0 0.00 0.02 0.02 89 1016.7
20260502090448 56 281 0.0 0.0 0.00 0.02 0.02 89 1017.0
20260502071343 58 281 0.0 0.0 0.05 0.01 0.01 88 1017.1
20260502070841 58 281 0.0 0.0 0.00 0.00 0.00 88 1017.3
20260502070339 58 281 0.0 0.0 0.00 0.00 0.00 88 1017.2
20260502065837 58 281 0.0 0.0 0.00 0.00 0.00 88 1017.3
20260502065335 58 278 0.0 0.0 0.00 0.00 0.00 88 1017.4
20260502064833 58 278 0.0 0.0 0.00 0.00 0.00 88 1017.9
20260502064331 58 278 0.0 0.0 0.00 0.00 0.00 88 1017.9
20260502063827 58 278 0.0 0.0 0.00 0.00 0.00 88 1018.0
20260502063325 58 278 0.0 0.0 0.00 0.00 0.00 88 1017.9
20260502062822 58 278 0.0 0.0 0.00 0.00 0.00 88 1017.9
20260502062320 58 278 0.0 0.0 0.00 0.00 0.00 88 1018.0
20260502061819 58 278 0.0 0.0 0.00 0.00 0.00 88 1017.8
20260502061316 58 278 0.0 0.0 0.00 0.00 0.00 88 1017.9
20260502060811 58 278 0.0 0.0 0.00 0.00 0.00 88 1018.2
20260502060307 58 278 0.0 0.0 0.00 0.00 0.00 87 1018.3
20260502055805 58 278 0.0 0.0 0.00 0.00 0.00 87 1018.0
20260502055305 58 278 0.0 0.0 0.00 0.00 0.00 87 1018.1
20260502054802 58 278 0.0 0.0 0.00 0.00 0.00 86 1017.9
20260502054259 59 278 0.0 0.0 0.00 0.00 0.00 86 1017.9
20260502053756 58 278 0.0 0.0 0.00 0.00 0.00 86 1018.0
20260502053253 59 278 0.0 0.0 0.00 0.00 0.00 86 1018.1
20260502052751 59 279 0.0 0.0 0.00 0.00 0.00 86 1018.1
20260502052249 59 279 0.0 0.0 0.00 0.00 0.00 86 1018.4
20260502051746 59 279 0.0 0.0 0.00 0.00 0.00 85 1018.0
20260502051245 59 279 0.0 0.0 0.00 0.00 0.00 85 1018.4
20260502050741 59 279 0.0 0.0 0.00 0.00 0.00 85 1018.3
20260502050237 59 279 0.0 0.0 0.00 0.00 0.00 85 1017.8
20260502045734 59 279 0.0 0.0 0.00 0.00 0.00 85 1017.9
20260502045231 59 279 0.0 0.0 0.00 0.00 0.00 85 1017.9
20260502044728 59 279 0.0 0.0 0.00 0.00 0.00 85 1018.3
20260502044224 59 279 0.0 0.0 0.00 0.00 0.00 85 1018.2
20260502043722 59 279 0.0 0.0 0.00 0.00 0.00 85 1018.2
20260502043219 59 279 0.0 0.0 0.00 0.00 0.00 85 1018.0
20260502042718 59 279 0.0 0.0 0.00 0.00 0.00 85 1018.0
20260502042216 59 279 0.0 0.0 0.00 0.00 0.00 85 1018.0
20260502041713 59 280 0.0 0.0 0.00 0.00 0.00 85 1018.1
20260502041210 59 280 0.0 0.0 0.00 0.00 0.00 85 1018.2
20260502040707 59 280 0.0 0.0 0.00 0.00 0.00 85 1018.4
20260502040204 59 280 0.0 0.0 0.00 0.00 0.00 85 1018.3
20260502035700 59 280 0.0 0.0 0.00 0.00 0.00 84 1018.5
20260502035157 59 280 0.0 0.0 0.00 0.00 0.00 84 1018.7
20260502034655 59 280 0.0 0.0 0.00 0.00 0.00 84 1018.5
20260502034153 59 280 0.0 0.0 0.00 0.00 0.00 84 1018.4
20260502033651 59 280 0.0 0.0 0.00 0.00 0.00 84 1018.8
20260502033148 59 280 0.0 0.0 0.00 0.00 0.00 84 1018.8
20260502032644 59 280 0.0 0.0 0.00 0.00 0.00 84 1018.9
20260502032141 60 280 0.0 0.0 0.00 0.00 0.00 84 1018.8
20260502031639 60 280 0.0 0.0 0.00 0.00 0.00 83 1018.8
20260502031136 60 280 0.0 0.0 0.00 0.00 0.00 83 1018.9
20260502030635 60 280 0.0 0.0 0.00 0.00 0.00 83 1018.9
20260502030133 60 280 0.0 0.0 0.00 0.00 0.00 83 1018.9
20260502025629 60 280 0.0 0.0 0.00 0.00 0.00 83 1018.7
20260502025128 60 280 0.0 0.0 0.00 0.00 0.00 83 1018.6
20260502024625 60 280 0.0 0.0 0.00 0.00 0.00 83 1018.6
20260502024123 60 280 0.0 0.0 0.00 0.00 0.00 83 1018.7
20260502023621 60 280 0.0 0.0 0.00 0.00 0.00 82 1018.9
20260502023118 60 280 0.0 0.0 0.00 0.00 0.00 82 1018.8
20260502022615 60 280 0.0 0.0 0.00 0.00 0.00 82 1018.9
20260502022112 60 280 0.0 0.0 0.00 0.00 0.00 82 1018.7
20260502021609 60 279 0.0 0.0 0.00 0.00 0.00 82 1018.7
20260502021106 60 279 0.0 0.0 0.00 0.00 0.00 82 1018.8
20260502020604 60 278 0.0 0.0 0.00 0.00 0.00 82 1018.9
20260502020100 60 280 0.0 0.0 0.00 0.00 0.00 82 1018.9
20260502015558 60 280 0.0 0.0 0.00 0.00 0.00 82 1018.8
20260502015054 60 280 0.0 0.0 0.00 0.00 0.00 82 1018.6
20260502014551 60 280 0.0 0.0 0.00 0.00 0.00 82 1018.6
20260502014048 60 280 0.0 0.0 0.00 0.00 0.00 82 1018.6
20260502013543 60 280 0.0 0.0 0.00 0.00 0.00 82 1018.4
20260502013040 60 280 0.0 0.0 0.00 0.00 0.00 82 1018.2
20260502012538 60 280 0.0 0.0 0.00 0.00 0.00 82 1018.4
20260502012035 60 280 0.0 0.0 0.00 0.00 0.00 82 1018.0
20260502011532 60 280 0.0 0.0 0.00 0.00 0.00 82 1018.1
20260502011028 60 280 0.0 0.0 0.00 0.00 0.00 82 1018.2
20260502010526 60 280 0.0 0.0 0.00 0.00 0.00 82 1018.0
20260502010022 60 280 0.0 0.0 0.00 0.00 0.00 81 1017.9
20260502005520 60 280 0.0 0.0 0.00 0.00 0.00 81 1017.8
20260502005017 60 280 0.0 0.0 0.00 0.00 0.00 80 1017.6
20260502004513 61 280 0.0 0.0 0.00 0.00 0.00 80 1017.8
20260502004010 61 280 0.0 0.0 0.00 0.00 0.00 80 1017.7
20260502003508 61 280 0.0 0.0 0.00 0.00 0.00 80 1017.6
20260502003004 61 280 0.0 0.0 0.00 0.00 0.00 80 1017.7
20260502002501 61 280 0.0 0.0 0.00 0.00 0.00 79 1017.8
20260502001958 61 280 0.0 0.0 0.00 0.00 0.00 79 1017.9
20260502001455 61 280 0.0 0.0 0.00 0.00 0.00 78 1017.8
20260502000953 61 280 0.0 0.0 0.00 0.00 0.00 78 1017.5
20260502000454 61 280 0.0 0.0 0.00 0.00 0.00 77 1017.6
20260501235947 61 280 0.0 0.0 0.00 0.00 0.00 76 1017.7
20260501235443 61 280 0.0 0.0 0.00 0.00 0.00 76 1017.4
20260501234938 61 280 0.0 0.0 0.00 0.00 0.00 75 1017.5
20260501234435 61 280 0.0 0.0 0.00 0.00 0.00 74 1017.5
20260501233934 61 280 0.0 0.0 0.00 0.00 0.00 74 1017.4
20260501233431 61 280 0.0 0.0 0.00 0.00 0.00 73 1017.7
20260501232927 61 280 0.0 0.0 0.00 0.00 0.00 72 1017.7
20260501232424 62 280 0.0 0.0 0.00 0.00 0.00 73 1017.2
20260501231921 62 280 0.0 0.0 0.00 0.00 0.00 73 1017.4
20260501231420 62 280 0.0 0.0 0.00 0.00 0.00 74 1017.5
20260501230917 62 280 0.0 0.0 0.00 0.00 0.00 74 1017.5
20260501230416 62 280 0.0 0.0 0.00 0.00 0.00 73 1017.9
20260501225913 62 280 0.0 0.0 0.00 0.00 0.00 72 1017.6
20260501225411 62 280 0.0 0.0 0.00 0.00 0.00 72 1017.6
20260501224906 62 280 0.0 0.0 0.00 0.00 0.00 72 1017.5
20260501224404 62 280 0.0 0.0 0.00 0.00 0.00 72 1017.7
20260501223900 63 280 0.0 0.0 0.00 0.00 0.00 71 1017.7
20260501223356 63 280 0.0 0.0 0.00 0.00 0.00 71 1017.8
20260501222852 63 280 0.0 0.0 0.00 0.00 0.00 70 1017.5
20260501222350 63 280 0.0 0.0 0.00 0.00 0.00 70 1017.5
20260501221846 64 280 0.0 0.0 0.00 0.00 0.00 69 1017.1
20260501221344 64 279 0.0 0.0 0.00 0.00 0.00 67 1017.4
20260501220842 64 280 0.0 0.0 0.00 0.00 0.00 67 1016.8
20260501220339 64 280 0.0 0.0 0.00 0.00 0.00 63 1017.0
20260501215835 64 280 0.0 0.0 0.00 0.00 0.00 69 1017.0
20260501215331 64 280 0.0 0.0 0.00 0.00 0.00 64 1017.2
20260501214827 64 280 0.0 0.0 0.00 0.00 0.00 66 1017.3
20260501214322 64 280 0.0 0.0 0.00 0.00 0.00 65 1017.2
20260501213819 64 280 0.0 0.0 0.00 0.00 0.00 69 1017.6
20260501213315 64 280 0.0 0.0 0.00 0.00 0.00 68 1017.7
20260501212811 64 280 0.0 0.0 0.00 0.00 0.00 67 1017.8
20260501212308 64 280 0.0 0.0 0.00 0.00 0.00 66 1017.9
20260501211805 64 280 0.0 0.0 0.00 0.00 0.00 65 1017.8
20260501211302 64 276 0.0 0.0 0.00 0.00 0.00 62 1017.6
20260501210759 64 280 0.0 0.0 0.00 0.00 0.00 64 1017.6
20260501210256 64 280 0.0 0.0 0.00 0.00 0.00 66 1017.6
20260501205752 64 280 0.0 0.0 0.00 0.00 0.00 66 1017.7
20260501205249 64 280 0.0 0.0 0.00 0.00 0.00 66 1017.9
20260501204746 63 280 0.0 0.0 0.00 0.00 0.00 68 1017.9
20260501204243 63 280 0.0 0.0 0.00 0.00 0.00 68 1018.3
20260501203739 63 280 0.0 0.0 0.00 0.00 0.00 70 1018.4
20260501203236 63 280 0.0 0.0 0.00 0.00 0.00 69 1018.5
20260501202733 62 280 0.0 0.0 0.00 0.00 0.00 70 1018.4
20260501202230 62 280 0.0 0.0 0.00 0.00 0.00 70 1018.9
20260501201727 62 280 0.0 0.0 0.00 0.00 0.00 71 1018.9
20260501201224 62 280 0.0 0.0 0.00 0.00 0.00 71 1018.9